Location: *
(45.9500°N, 9.0833°E)
Time: 02:12:02
(UTC+00:00)

SR - Pass Details

Date: 23 June 2021
Orbit: 577 x 878 km, 66.7° (Epoch: 23 July)

Event Time Altitude Azimuth Distance (km) Brightness Sun altitude
Rises 15:42:11 0° 227° (SW) 3,458 ? 34.4°
Reaches altitude 10° 15:44:45 10° 232° (SW) 2,528 ? 34.0°
Maximum altitude 15:50:31 53° 309° (NW) 1,058 ? 32.9°
Drops below altitude 10° 15:56:11 10° 26° (NNE) 2,474 ? 32.0°
Sets 15:58:40 0° 31° (NNE) 3,379 ? 31.5°
